Regional Weather Roundup
Issued by NWS Sioux Falls, SD

Home | Current Version | Previous Version | Graphics & Text | Print | Product List | Glossary On
Versions: 1 2 3 4 5 6 7 8 9 10 11 12 13 14 15 16 17 18 19 20 21 22 23 24 25 26 27 28 29 30 31 32 33 34 35 36 37 38 39 40 41 42 43 44 45 46 47 48 49 50
000
ASUS43 KFSD 222102
RWRFSD

WEATHER ROUNDUP FOR SE SOUTH DAKOTA/SW MINNESOTA/NW IOWA
NATIONAL WEATHER SERVICE SIOUX FALLS SD
400 PM CDT TUE AUG 22 2017

NOTE: "FAIR" INDICATES FEW OR NO CLOUDS BELOW 12,000 FEET WITH NO
SIGNIFICANT WEATHER AND OR OBSTRUCTIONS TO VISIBILITY.


SDZ038>040-050-052>070-222200-
SOUTHEAST SOUTH DAKOTA

CITY           SKY/WX    TMP DP  RH WIND       PRES   REMARKS
BROOKINGS      SUNNY     72  48  42 N14       30.16F
CHAMBERLAIN    SUNNY     78  49  36 CALM      30.18F
HURON          SUNNY     77  44  30 NW15      30.15F
MADISON        FAIR      72  48  43 NW14G20   30.18S
MITCHELL       SUNNY     77  44  30 NW8       30.16F
SIOUX FALLS    MOSUNNY   76  48  37 N14       30.16F
WINNER         FAIR      80  47  31 N5        30.19F
YANKTON        SUNNY     75  47  36 W12       30.18F
$$

MNZ071-072-080-081-089-090-097-098-222200-
SOUTHWEST MINNESOTA

CITY           SKY/WX    TMP DP  RH WIND       PRES   REMARKS
FAIRMONT       SUNNY     73  51  46 NW13G20   30.11
JACKSON        SUNNY     70  50  49 NW16      30.13F
LUVERNE        SUNNY     72  43  35 NW12      30.16S
MARSHALL       SUNNY     73  50  44 NW14G23   30.12F
MONTEVIDEO     SUNNY     75  50  41 N14G22    30.11F
PIPESTONE      SUNNY     73  45  35 NW13G22   30.16S
REDWOOD FALLS  SUNNY     74  45  35 NW17G25   30.10S
TRACY          SUNNY     72  52  48 NW12      30.13F
WINDOM         SUNNY     72  46  40 NW15G22   30.13S
WORTHINGTON    SUNNY     72  50  45 NW13      30.15F
$$

IAZ001>003-012>014-020>022-031-032-NEZ013-014-SDZ071-222200-
NORTHWEST IOWA

CITY           SKY/WX    TMP DP  RH WIND       PRES   REMARKS
CHEROKEE       SUNNY     74  49  42 N9G18     30.15S
DENISON        SUNNY     72  52  49 N12G17    30.16F
ESTHERVILLE    SUNNY     72  50  45 NW13G21   30.11F
ORANGE CITY    SUNNY     75  52  43 NW10G17   30.16S
SHELDON        SUNNY     73  50  43 NW9G18    30.14S
SIOUX CITY     SUNNY     74  51  44 NW12      30.16F
SPENCER        SUNNY     75  49  39 NW15G22   30.13F
STORM LAKE     SUNNY     72  52  49 NW12G20   30.15F
$$

ABBREVIATIONS USED IN REMARKS
   TC - TEMPERATURE IN CELSIUS
  WCI - WIND CHILL INDEX
   HX - HEAT INDEX
  VSB - VISIBILITY





USA.gov is the U.S. government's official web portal to all federal, state and local government web resources and services.